Theta_e
292 294 295 294 294 294 291 290 285 287 287 292 294 294 295 296 297 297 297 298 299 298 298 299 299 300 300 301 302 304 303 303 302 305 306 307 310 315 316 317 320 324 321 319
289 295 294 292 294 294 293 293 291 290 290 294 296 297 296 295 295 295 295 296 297 298 298 297 298 298 299 300 301 302 301 301 302 302 304 305 307 312 313 315 317 322 319 321
284 293 292 287 293 295 296 295 293 287 290 295 293 294 293 294 295 294 295 296 297 297 298 298 297 298 298 299 300 300 300 300 300 302 302 303 305 308 312 311 312 315 316 322
285 288 278 293 300 299 294 295 295 294 294 294 293 294 294 295 294 295 296 296 297 296 296 295 296 295 296 297 297 297 298 299 301 301 301 302 303 306 311 310 311 313 314 320
282 283 289 293 297 295 292 291 295 292 293 294 294 294 294 297 298 296 297 296 296 296 295 294 294 295 294 294 294 295 296 298 299 300 300 301 302 303 308 311 313 312 315 317
285 282 281 293 299 302 297 285 295 294 292 291 293 286 290 297 297 296 296 295 294 294 293 293 293 294 293 293 293 292 294 296 298 299 300 300 301 303 308 312 313 315 315 316
285 282 289 298 299 300 284 284 295 294 292 291 290 293 296 298 295 295 295 293 293 293 292 292 294 294 293 293 292 294 295 295 297 298 298 301 301 302 303 309 312 313 313 314
287 282 282 300 298 290 292 295 294 293 293 294 295 296 295 294 293 293 292 292 292 292 292 293 294 294 293 293 295 296 296 296 296 296 298 300 300 300 303 307 306 310 311 311
291 290 299 298 295 299 297 294 294 293 294 296 295 293 293 292 292 292 291 291 292 291 291 292 293 293 292 294 296 297 297 295 296 297 296 298 300 299 302 305 305 308 310 309
293 297 297 299 298 297 297 295 296 295 297 295 293 293 292 292 292 290 290 290 291 290 289 289 292 293 294 295 297 297 296 297 296 296 296 296 299 301 301 301 309 306 309 308
294 296 298 297 296 297 297 297 296 298 297 295 294 292 293 292 291 290 290 290 290 290 289 289 291 292 294 297 298 297 297 297 297 296 296 295 298 300 300 305 305 309 308 310
288 294 293 293 296 298 295 295 297 297 295 296 294 293 293 291 291 290 290 290 289 289 289 290 290 291 294 295 297 297 296 296 296 295 296 296 296 298 297 297 296 296 297 306
294 297 296 297 297 298 296 297 298 297 296 294 294 294 293 291 291 291 290 290 289 289 289 289 289 290 292 293 296 297 296 296 296 295 296 295 295 296 298 300 296 295 296 298
298 299 295 295 292 297 298 298 298 297 296 295 294 295 294 292 291 290 289 290 290 289 289 288 288 289 291 293 297 299 298 295 296 296 296 298 298 298 299 302 299 299 298 297
298 297 294 295 295 296 297 296 295 294 294 294 294 293 293 292 290 290 291 291 290 289 288 288 287 288 291 294 296 300 299 299 299 299 298 299 300 300 301 302 302 302 301 297
296 294 293 293 294 296 295 295 293 292 294 294 293 294 293 294 293 292 292 292 289 287 288 287 287 288 291 293 293 298 301 295 297 299 299 299 301 300 301 299 302 302 302 302
291 289 290 292 293 294 294 295 294 293 294 294 294 295 294 293 293 293 292 293 291 289 288 288 287 289 291 291 290 296 302 301 297 300 300 298 299 300 299 299 298 298 301 301
293 292 293 293 293 294 295 296 295 294 293 295 295 294 292 291 291 291 292 293 291 289 289 288 289 289 289 289 290 294 297 304 303 302 301 299 300 301 297 300 299 299 299 301
293 292 293 293 294 294 293 294 293 293 294 295 294 292 293 291 292 291 292 291 290 287 288 289 290 289 288 288 288 291 292 294 297 302 303 298 299 301 300 300 301 301 299 301
293 292 293 293 294 293 292 293 293 294 294 293 292 292 291 291 292 292 291 289 291 289 289 289 289 288 288 288 287 287 288 289 291 292 294 297 303 302 302 298 301 298 300 302
293 292 292 292 292 293 293 293 292 292 294 293 292 291 290 291 292 291 288 287 290 291 289 289 288 288 288 287 287 286 286 286 287 287 289 290 292 294 299 305 305 304 304 303
292 291 291 292 292 292 293 292 292 292 292 293 293 292 290 289 289 290 289 286 289 289 289 287 287 286 287 287 287 286 285 284 284 285 285 286 288 289 290 293 296 303 306 306
292 293 292 292 291 291 293 293 292 291 290 291 292 291 289 288 288 286 286 288 289 288 287 286 285 286 285 288 287 286 284 284 283 283 283 284 285 286 287 288 290 292 295 298
292 292 292 293 293 291 290 291 291 291 290 290 293 292 289 286 286 288 289 290 288 288 287 285 285 285 286 287 286 285 285 283 282 282 282 282 282 283 284 285 286 288 290 292
293 292 292 291 289 289 290 290 291 289 288 287 290 291 290 288 285 287 289 290 288 288 287 286 285 284 285 285 283 283 283 283 282 281 282 281 281 281 282 283 284 285 287 288
292 291 291 291 290 289 288 289 288 286 286 285 287 288 288 288 287 288 289 289 289 288 286 287 286 284 283 283 283 282 282 282 281 281 281 281 281 281 281 281 282 284 285 286
290 291 290 289 289 289 288 287 286 285 286 285 286 287 287 286 286 287 288 288 287 287 286 286 287 284 283 282 282 282 281 281 280 280 280 280 280 280 281 281 281 283 284 284
Wind_Speed
8 10 10 10 13 17 15 12 7 7 7 8 7 8 9 9 12 14 14 15 15 16 16 17 19 18 18 18 18 17 16 15 14 15 14 11 14 8 2 4 8 13 8 9
7 11 13 15 14 16 16 17 10 3 7 5 7 10 14 13 15 14 15 17 19 20 20 20 21 19 19 18 17 18 19 19 17 17 17 14 12 12 5 5 5 3 7 13
4 8 10 7 13 12 2 15 6 7 4 14 16 17 14 15 12 14 19 21 22 23 22 19 19 20 20 18 19 18 19 19 19 18 17 16 13 13 6 4 4 3 3 7
4 5 4 2 10 7 19 16 12 9 12 11 9 10 9 6 10 17 19 21 21 19 19 19 19 19 19 19 18 18 20 19 16 15 16 16 12 10 10 4 5 6 5 3
2 3 9 12 5 7 5 6 8 7 8 8 10 10 2 10 11 15 17 20 19 18 19 19 19 18 17 17 17 18 19 18 16 15 16 13 12 12 13 6 5 5 6 9
2 3 3 5 6 7 4 3 6 6 6 6 9 11 11 16 14 18 20 17 19 19 18 17 17 17 17 17 16 16 17 17 17 16 14 11 14 7 7 6 8 3 3 10
5 3 3 3 5 7 0 4 5 5 5 6 4 4 12 16 18 18 18 20 20 18 16 17 17 16 17 17 16 16 16 17 15 14 14 12 10 8 5 6 6 6 3 6
4 2 5 6 6 5 2 4 4 4 5 5 5 9 13 15 19 19 19 20 19 16 16 17 16 15 16 17 17 16 15 15 14 14 11 10 11 7 5 5 2 1 3 7
2 1 6 6 7 5 1 0 3 4 5 6 8 11 14 18 19 18 18 17 16 16 18 16 15 15 16 17 17 16 15 14 13 12 10 10 10 5 3 3 3 4 3 0
7 4 9 7 6 2 1 3 5 5 6 7 9 12 16 16 16 16 16 16 16 17 17 18 16 17 16 18 18 16 15 14 11 9 7 8 7 6 3 1 3 4 5 3
7 4 5 7 4 4 6 7 7 7 7 8 10 13 17 15 17 15 16 16 16 15 15 17 17 17 17 17 18 15 16 10 5 4 4 6 6 6 3 3 2 4 4 7
3 4 2 1 3 6 8 7 7 7 8 9 9 10 15 14 14 14 16 16 15 16 16 17 18 18 17 17 17 14 11 5 2 0 2 2 2 4 4 7 9 4 3 7
4 3 3 3 7 7 7 8 7 10 7 6 8 6 14 12 14 18 15 16 17 17 16 16 17 17 16 17 17 10 8 5 3 3 1 2 3 4 3 2 8 9 7 7
2 2 5 8 3 7 8 9 12 10 8 5 6 4 12 13 14 16 17 16 16 15 16 16 16 16 17 17 16 9 5 6 4 2 3 2 3 2 3 3 2 2 7 7
2 5 6 6 8 8 9 11 10 9 8 6 6 4 10 13 15 16 17 15 15 14 16 17 17 18 19 18 16 10 5 5 5 2 3 4 3 2 2 4 4 4 6 5
7 9 8 7 7 8 9 8 8 7 7 7 7 5 6 9 11 13 16 14 17 17 18 17 17 18 17 17 17 11 4 5 6 4 3 3 4 4 3 4 4 4 3 3
8 7 6 6 7 8 8 8 6 5 5 6 8 6 8 11 11 12 14 14 15 15 16 17 19 18 17 16 16 9 9 4 5 3 4 1 1 1 2 3 3 1 1 4
7 6 6 8 7 8 8 8 5 5 6 6 6 6 6 7 9 12 13 13 13 16 19 19 19 17 17 19 16 11 11 10 5 4 2 2 2 2 2 2 3 3 3 4
8 6 9 8 7 8 5 5 4 5 6 6 7 8 5 6 6 8 12 14 14 17 19 18 25 20 18 22 19 11 12 13 12 10 4 2 3 2 2 3 3 4 4 3
8 7 8 9 8 7 6 6 6 6 6 6 6 8 9 6 7 7 12 12 12 7 14 17 17 17 18 20 22 12 13 13 12 11 10 11 6 4 4 5 5 4 5 6
7 7 8 8 6 6 6 5 6 6 5 6 6 7 8 7 8 6 10 11 13 10 14 21 16 12 12 15 15 13 13 13 13 12 12 11 11 11 11 6 6 6 6 6
6 6 7 7 6 6 4 5 6 6 7 6 6 6 7 8 9 6 7 7 8 12 12 13 13 17 12 17 12 13 14 14 12 11 11 11 11 11 11 10 10 8 5 7
6 6 6 6 6 5 6 5 6 6 8 8 6 7 7 6 6 9 6 6 8 8 10 12 20 21 10 12 11 12 14 14 13 12 12 11 10 10 11 11 11 11 9 8
6 5 5 5 6 5 6 6 6 7 9 10 6 7 7 8 8 9 3 5 10 11 8 11 18 21 15 11 12 12 12 14 13 12 12 16 11 11 10 10 10 10 10 11
7 5 5 7 6 4 6 7 6 6 7 8 7 6 7 6 6 9 6 6 13 10 10 11 17 19 12 11 14 12 13 12 12 12 12 11 11 11 11 11 11 11 10 10
5 4 4 6 4 4 4 4 4 4 5 5 5 6 7 8 9 9 7 11 11 11 10 12 10 14 11 13 12 14 12 12 14 13 13 12 12 11 11 12 11 11 10 9
5 8 6 5 4 4 4 5 5 4 5 5 5 6 8 9 10 10 10 10 10 10 10 12 9 13 13 14 12 12 11 11 14 13 12 11 12 12 12 11 11 10 10 10
Wind_Direction
273 284 276 259 236 267 268 254 216 237 238 55 42 23 30 14 1 348 340 338 338 331 321 310 304 303 300 297 296 300 295 294 294 302 301 305 306 283 296 303 307 298 193 175
284 289 277 272 266 263 267 266 256 320 95 41 24 17 14 4 347 342 337 326 319 316 313 310 302 297 296 293 295 301 292 289 290 288 289 297 300 298 297 261 318 336 229 178
264 281 314 278 251 275 219 49 49 55 342 7 6 8 359 337 340 332 324 324 321 317 311 312 311 307 296 292 290 281 278 278 278 274 281 280 290 303 278 268 233 236 297 245
246 306 249 133 24 43 81 57 43 32 17 9 353 335 314 329 332 325 326 321 318 311 309 307 304 300 295 294 288 284 279 275 276 278 278 279 278 282 262 247 239 229 222 234
188 231 287 312 60 347 46 57 38 23 3 341 340 319 286 346 328 326 323 317 310 311 308 305 302 299 295 295 291 288 285 278 274 276 277 271 282 274 272 236 246 257 204 299
225 213 263 69 6 331 314 139 9 20 343 347 344 339 320 335 337 329 321 316 312 311 307 303 302 299 294 290 287 285 285 285 283 284 269 266 265 271 274 242 256 265 359 271
221 237 246 311 354 302 193 261 331 27 340 328 320 268 307 329 330 325 317 318 316 310 307 305 301 299 296 293 285 282 279 283 278 282 277 286 259 272 281 256 267 270 288 315
225 225 251 328 39 80 208 310 10 326 312 305 335 328 333 329 325 324 326 323 320 317 316 314 312 306 299 295 290 284 279 272 272 275 275 269 278 241 263 239 227 238 70 309
145 233 100 73 118 122 174 237 295 5 323 29 358 346 338 332 331 329 327 322 325 323 321 323 320 313 305 300 300 292 279 268 265 260 266 263 277 266 270 166 178 218 158 210
149 234 152 100 78 54 46 33 43 8 40 41 8 351 340 331 332 332 329 329 329 329 328 324 323 321 312 308 301 294 284 277 256 249 250 247 245 263 282 150 193 214 216 171
98 59 141 83 60 330 44 52 30 36 45 36 20 354 341 335 338 334 332 333 334 330 327 323 325 321 321 325 320 319 311 273 248 231 243 256 264 242 230 270 165 209 211 186
135 130 144 63 349 38 60 37 56 51 33 36 15 358 345 343 341 334 335 335 337 335 330 330 327 322 326 331 326 334 342 3 13 11 281 282 265 292 318 286 283 32 316 197
132 192 191 93 55 60 51 80 60 52 37 31 349 25 356 347 345 340 340 343 343 337 333 331 327 326 332 331 328 336 345 348 346 312 287 230 239 231 215 357 44 60 355 208
106 24 53 62 36 64 65 70 63 43 7 42 335 41 12 355 348 349 350 345 340 339 341 339 335 333 332 328 322 320 325 331 320 312 287 292 261 203 216 156 162 47 20 40
86 90 90 59 61 48 70 61 50 30 349 349 346 65 25 358 356 349 345 346 347 349 352 350 345 342 336 332 340 316 341 325 320 308 290 316 273 339 333 98 62 67 81 40
78 66 52 54 61 61 66 66 62 21 358 338 350 25 18 11 358 350 348 350 357 359 352 352 349 343 337 342 339 330 308 330 330 330 332 18 26 71 59 89 108 112 122 67
70 56 39 57 65 64 70 76 69 28 341 1 9 12 21 3 357 359 1 1 2 0 357 359 355 346 347 349 340 331 327 298 292 300 310 304 118 93 45 98 129 193 170 114
89 80 64 72 70 71 63 72 71 32 18 9 2 5 25 0 3 360 356 0 1 7 8 2 358 354 356 357 351 350 346 342 318 308 265 302 256 210 192 196 179 182 229 228
89 78 84 72 75 80 64 65 72 62 24 12 8 359 22 7 356 9 356 6 9 8 4 358 0 3 5 2 2 360 2 1 359 356 348 263 282 265 226 217 229 232 222 219
98 81 88 85 78 83 67 33 22 61 49 24 18 13 2 7 3 25 10 11 17 0 360 358 4 5 6 2 7 6 6 7 4 2 2 2 330 261 237 234 232 226 220 222
94 87 86 89 73 78 80 58 21 26 62 32 33 18 6 352 355 29 22 13 5 6 11 5 3 1 4 3 8 10 10 7 8 3 1 358 355 356 354 297 228 222 226 219
82 85 84 83 82 49 47 83 50 21 18 42 29 27 17 6 5 12 62 24 2 28 17 8 360 351 355 9 11 10 9 10 7 2 4 0 359 356 353 354 348 333 263 261
84 80 75 79 69 66 23 57 62 35 27 1 24 34 30 11 360 357 20 5 22 34 29 15 358 351 346 9 10 12 12 8 6 3 1 359 358 356 352 350 345 347 348 348
98 93 92 72 84 52 40 2 67 55 33 0 12 53 41 19 360 351 7 46 21 43 25 27 9 357 11 9 11 9 12 9 3 359 357 360 356 353 350 350 350 348 346 348
110 85 74 78 60 48 32 6 60 49 36 1 3 45 51 24 19 332 340 46 26 33 21 28 22 8 9 10 14 9 7 9 3 356 356 354 351 352 351 348 350 346 347 349
79 124 98 67 99 80 43 18 59 48 41 2 9 37 41 19 360 341 344 56 31 20 24 13 27 16 13 11 9 10 2 2 5 360 354 351 349 350 349 347 346 346 344 342
70 72 68 41 5 68 49 34 41 38 34 1 43 30 43 18 354 344 21 53 29 20 20 13 19 22 12 12 11 5 4 1 4 357 356 353 350 345 345 345 343 339 339 340